Location: Newport
(44.6370°N, 124.0520°W)
Time: 18:55:34
(UTC-08:00)

RS-15 - Visible Passes

Search period start: 20 November 2017 00:00
Search period end: 30 November 2017 00:00
Orbit: 1884 x 2160 km, 64.8° (Epoch: 20 November)

Date Brightness Start Highest point End Pass type
(mag) Time Alt. Az. Time Alt. Az. Time Alt. Az.
20 Nov 9.3 01:15:48 28° NE 01:15:48 28° NE 01:22:47 10° ENE visible
20 Nov 8.2 03:23:39 43° NNW 03:28:04 66° NE 03:39:19 10° SE visible
20 Nov 8.3 05:31:30 17° NW 05:39:54 42° WSW 05:50:02 10° S visible
20 Nov 8.7 17:42:13 10° SSE 17:52:31 33° ESE 18:02:45 10° NE visible
20 Nov 8.1 19:51:30 10° SW 20:03:53 80° NW 20:10:37 34° NNE visible
20 Nov 9.1 22:07:34 10° W 22:18:26 36° NNW 22:18:26 36° NNW visible
21 Nov 9.7 00:25:32 10° NW 00:42:11 19° NE 00:45:38 10° ENE visible
21 Nov 8.4 02:50:03 52° NNE 02:51:43 55° NE 03:02:49 10° ESE visible
21 Nov 8.0 04:57:54 29° NW 05:04:13 54° WSW 05:14:55 10° S visible
21 Nov 9.0 17:07:59 10° SSE 17:17:01 25° E 17:26:00 10° NE visible
21 Nov 8.0 19:15:26 10° SSW 19:27:48 85° ESE 19:36:22 24° NE visible
21 Nov 8.9 21:30:25 10° W 21:41:49 40° NNW 21:44:09 38° N visible
21 Nov 9.7 23:48:37 10° NW 00:08:39 10° ENE 23:51:57 18° NW visible
22 Nov 8.7 02:16:31 45° NE 02:16:31 45° NE 02:26:07 10° ESE visible
22 Nov 7.9 04:24:23 46° NW 04:28:25 68° WSW 04:39:28 10° SSE visible
22 Nov 9.1 06:32:28 10° WNW 06:38:16 15° W 06:43:58 10° SW visible
22 Nov 8.1 18:39:38 10° SSW 18:51:49 71° ESE 19:01:59 17° NE visible
22 Nov 8.7 20:53:26 10° WSW 21:05:11 47° NW 21:09:47 35° N visible
22 Nov 9.5 23:11:33 10° WNW 23:35:10 - ENE 23:17:33 24° NNW visible
23 Nov 9.2 01:43:02 31° ENE 01:43:02 31° ENE 01:49:13 10° E visible
23 Nov 7.8 03:50:54 71° NW 03:52:29 83° WSW 04:03:44 10° SSE visible
23 Nov 8.8 05:58:46 18° WNW 06:02:58 22° W 06:10:46 10° SW visible
23 Nov 8.2 18:04:08 10° S 18:15:58 57° ESE 18:27:32 11° NE visible
23 Nov 8.6 20:16:37 10° WSW 20:28:40 55° NW 20:35:19 30° NNE visible
23 Nov 9.3 22:34:22 10° WNW 22:43:05 29° NNW 22:43:05 29° NNW visible
24 Nov 9.7 01:09:34 18° ENE 01:09:34 18° ENE 01:12:12 10° E visible
24 Nov 8.0 03:17:26 76° ESE 03:17:26 76° ESE 03:27:44 10° SE visible
24 Nov 8.5 05:25:18 28° W 05:27:32 30° WSW 05:36:39 10° SSW visible
24 Nov 8.5 17:28:57 10° S 17:40:13 45° ESE 17:51:26 10° NE visible
24 Nov 8.4 19:40:01 10° SW 19:52:18 66° NW 20:00:46 24° NNE visible
24 Nov 9.2 21:57:07 10° WNW 22:07:44 32° NNW 22:08:32 32° N visible
25 Nov 9.9 00:14:30 10° NW 00:36:06 - E 00:16:18 15° NW visible
25 Nov 8.5 02:43:58 48° ESE 02:43:58 48° ESE 02:51:30 10° SE visible
25 Nov 8.2 04:51:50 40° WSW 04:51:59 40° WSW 05:02:00 10° S visible
25 Nov 8.7 16:54:09 10° SSE 17:04:35 35° ESE 17:14:58 10° NE visible
25 Nov 8.2 19:03:40 10° SW 19:16:03 78° NW 19:26:10 18° NNE visible
25 Nov 9.1 21:19:52 10° W 21:30:50 35° NNW 21:33:55 31° N visible
25 Nov 9.7 23:37:48 10° NW 23:41:42 20° NNW 23:41:42 20° NNW visible
26 Nov 9.2 02:10:28 28° ESE 02:10:28 28° ESE 02:15:01 10° ESE visible
26 Nov 8.2 04:18:20 48° SW 04:18:20 48° SW 04:26:55 10° S visible
26 Nov 8.1 18:27:34 10° SSW 18:39:56 88° ESE 18:51:31 12° NE visible
26 Nov 9.0 20:42:44 10° W 20:54:04 40° NNW 20:59:17 29° NNE visible
26 Nov 9.5 23:00:55 10° NW 23:07:02 24° NNW 23:07:02 24° NNW visible
27 Nov 9.7 01:36:56 15° ESE 01:36:56 15° ESE 01:38:21 10° ESE visible
27 Nov 8.4 03:44:48 43° S 03:44:48 43° S 03:51:31 10° SSE visible
27 Nov 9.2 05:52:39 14° WSW 05:52:39 14° WSW 05:55:32 10° WSW visible
27 Nov 8.2 17:51:44 10° SSW 18:03:57 73° ESE 18:16:06 10° NE visible
27 Nov 8.8 20:05:42 10° WSW 20:17:24 46° NW 20:24:35 25° NNE visible
27 Nov 9.3 22:23:52 10° WNW 22:32:21 28° NNW 22:32:21 28° NNW visible
28 Nov 10.0 00:39:38 10° NW 01:03:20 - ESE 00:40:06 11° NW visible
28 Nov 8.9 03:11:12 31° SSE 03:11:12 31° SSE 03:15:50 10° SSE visible
28 Nov 9.1 05:19:03 17° SW 05:19:03 17° SW 05:22:33 10° SW visible
28 Nov 8.3 17:16:11 10° S 17:28:04 59° ESE 17:39:54 10° NE visible
28 Nov 8.6 19:28:52 10° WSW 19:40:53 54° NW 19:49:52 20° NNE visible
28 Nov 9.2 21:46:42 10° WNW 21:56:59 29° N 21:57:37 29° N visible
29 Nov 9.8 00:03:15 10° NW 00:05:22 16° NNW 00:05:22 16° NNW visible
29 Nov 9.4 02:37:32 19° SE 02:37:32 19° SE 02:39:53 10° SE visible
29 Nov 9.1 04:45:23 19° SW 04:45:23 19° SW 04:48:32 10° SSW visible
29 Nov 8.5 18:52:15 10° SW 19:04:29 64° NW 19:15:08 15° NNE visible
29 Nov 9.2 21:09:27 10° WNW 21:20:00 31° NNW 21:22:53 29° N visible
29 Nov 9.7 23:26:44 10° NW 23:30:37 20° NNW 23:30:37 20° NNW visible
